Time,TemperatureF,DewpointF,PressureIn,WindDirection,WindDirectionDegrees,WindSpeedMPH,WindSpeedGustMPH,Humidity,HourlyPrecipIn,Conditions,Clouds,dailyrainin,SoftwareType,DateUTC
2013-09-20 00:24:00,57.0,51.0,30.06,ESE,113,0.0,0.0,79,0.00,,,0.00,,2013-09-20 04:24:00,
2013-09-20 00:53:00,56.0,50.0,30.05,ESE,113,0.0,0.0,80,0.00,,,0.00,,2013-09-20 04:53:00,
2013-09-20 01:23:00,55.0,49.0,30.05,ESE,113,0.0,0.0,81,0.00,,,0.00,,2013-09-20 05:23:00,
2013-09-20 01:53:00,55.0,50.0,30.06,ESE,113,0.0,0.0,82,0.00,,,0.00,,2013-09-20 05:53:00,
2013-09-20 02:22:00,55.0,50.0,30.05,ESE,113,0.0,0.0,83,0.00,,,0.00,,2013-09-20 06:22:00,
2013-09-20 03:23:00,54.0,49.0,30.05,ESE,113,0.0,0.0,84,0.00,,,0.00,,2013-09-20 07:23:00,
2013-09-20 03:53:00,54.0,50.0,30.06,ESE,113,0.0,0.0,85,0.00,,,0.00,,2013-09-20 07:53:00,
2013-09-20 04:22:00,54.0,50.0,30.06,ESE,113,0.0,0.0,85,0.00,,,0.00,,2013-09-20 08:22:00,
2013-09-20 05:22:00,53.0,49.0,30.05,ESE,113,0.0,0.0,87,0.00,,,0.00,,2013-09-20 09:22:00,
2013-09-20 05:53:00,53.0,49.0,30.05,ESE,113,0.0,0.0,87,0.00,,,0.00,,2013-09-20 09:53:00,
2013-09-20 06:23:00,53.0,50.0,30.04,ESE,113,0.0,0.0,88,0.00,,,0.00,,2013-09-20 10:23:00,
2013-09-20 06:53:00,52.0,49.0,30.05,ESE,113,0.0,0.0,88,0.00,,,0.00,,2013-09-20 10:53:00,
2013-09-20 07:23:00,51.0,48.0,30.05,ESE,113,0.0,0.0,88,0.00,,,0.00,,2013-09-20 11:23:00,
2013-09-20 07:52:00,50.0,46.0,30.07,ESE,113,0.0,0.0,87,0.00,,,0.00,,2013-09-20 11:52:00,
2013-09-20 08:22:00,50.0,46.0,30.08,ENE,68,0.0,0.0,87,0.00,,,0.00,,2013-09-20 12:22:00,
2013-09-20 08:52:00,52.0,49.0,30.07,ENE,68,0.0,0.0,88,0.00,,,0.00,,2013-09-20 12:52:00,
2013-09-20 09:52:00,59.0,54.0,30.08,ENE,68,0.0,0.0,85,0.00,,,0.00,,2013-09-20 13:52:00,
2013-09-20 10:21:00,62.0,56.0,30.08,North,0,0.0,0.0,82,0.00,,,0.00,,2013-09-20 14:21:00,
2013-09-20 10:52:00,65.0,58.0,30.08,North,0,0.0,0.0,78,0.00,,,0.00,,2013-09-20 14:52:00,
2013-09-20 11:22:00,68.0,59.0,30.08,North,0,0.0,0.0,72,0.00,,,0.00,,2013-09-20 15:22:00,
2013-09-20 11:54:00,71.0,60.0,30.08,WNW,293,0.0,0.0,68,0.00,,,0.00,,2013-09-20 15:54:00,
2013-09-20 12:23:00,74.0,61.0,30.07,NW,315,0.0,2.0,63,0.00,,,0.00,,2013-09-20 16:23:00,
2013-09-20 14:52:00,77.0,55.0,30.03,WSW,248,0.0,0.0,46,0.00,,,0.00,,2013-09-20 18:52:00,
2013-09-20 15:22:00,76.0,54.0,30.01,WSW,248,4.0,4.0,46,0.00,,,0.00,,2013-09-20 19:22:00,
2013-09-20 15:53:00,77.0,54.0,30.01,WSW,248,4.0,4.0,45,0.00,,,0.00,,2013-09-20 19:53:00,
2013-09-20 16:22:00,77.0,56.0,30.00,WSW,248,5.0,5.0,49,0.00,,,0.00,,2013-09-20 20:22:00,
2013-09-20 16:52:00,76.0,58.0,30.01,WSW,248,5.0,5.0,53,0.00,,,0.00,,2013-09-20 20:52:00,
2013-09-20 17:22:00,74.0,55.0,30.00,SE,135,2.0,2.0,52,0.00,,,0.00,,2013-09-20 21:22:00,
2013-09-20 18:24:00,71.0,54.0,30.02,SE,135,0.0,0.0,55,0.00,,,0.00,,2013-09-20 22:24:00,
2013-09-20 18:53:00,67.0,54.0,30.02,SE,135,0.0,0.0,64,0.00,,,0.00,,2013-09-20 22:53:00,
2013-09-20 19:13:00,66.0,54.0,30.02,SE,135,0.0,0.0,66,0.00,,,0.00,,2013-09-20 23:13:00,
2013-09-20 19:22:00,65.0,54.0,30.02,SE,135,0.0,0.0,68,0.00,,,0.00,,2013-09-20 23:22:00,
2013-09-20 19:53:00,63.0,54.0,30.02,SE,135,0.0,6.0,73,0.00,,,0.00,,2013-09-20 23:53:00,
2013-09-20 20:22:00,62.0,55.0,30.03,SE,135,0.0,5.0,77,0.00,,,0.00,,2013-09-21 00:22:00,
2013-09-20 20:42:00,62.0,55.0,30.03,South,180,0.0,0.0,77,0.00,,,0.00,,2013-09-21 00:42:00,
2013-09-20 20:52:00,61.0,54.0,30.02,SE,135,0.0,0.0,79,0.00,,,0.00,,2013-09-21 00:52:00,
2013-09-20 21:22:00,60.0,54.0,30.02,SE,135,0.0,2.0,80,0.00,,,0.00,,2013-09-21 01:22:00,
2013-09-20 21:52:00,60.0,54.0,30.03,SE,135,0.0,0.0,82,0.00,,,0.00,,2013-09-21 01:52:00,
2013-09-20 22:22:00,60.0,55.0,30.03,SE,135,1.0,1.0,84,0.00,,,0.00,,2013-09-21 02:22:00,
2013-09-20 22:52:00,59.0,54.0,30.02,ESE,113,0.0,5.0,85,0.00,,,0.00,,2013-09-21 02:52:00,
2013-09-20 23:22:00,59.0,55.0,30.02,SE,135,0.0,0.0,86,0.00,,,0.00,,2013-09-21 03:22:00,
2013-09-20 23:55:00,59.0,55.0,30.02,SE,135,0.0,0.0,87,0.00,,,0.00,,2013-09-21 03:55:00,